| time (UTC) | temp C | wind direction | speed KPH | gust KPH | rain 1hr cm | rain 24hr cm | rain mn cm | humidity % | barometer mb |
| 20260831033905 | 16 | 120 | 1.6 | 9.7 | 0.00 | 0.00 | 0.00 | 85 | 1020.2 |
| 20260831033405 | 16 | 112 | 0.0 | 4.8 | 0.00 | 0.00 | 0.00 | 85 | 1020.1 |
| 20260831032405 | 16 | 123 | 1.6 | 14.5 | 0.00 | 0.00 | 0.00 | 84 | 1020.2 |
| 20260831031905 | 16 | 129 | 1.6 | 9.7 | 0.00 | 0.00 | 0.00 | 85 | 1020.2 |
| 20260831031404 | 16 | 134 | 0.0 | 0.0 | 0.00 | 0.00 | 0.00 | 84 | 1020.2 |
| 20260831030905 | 16 | 131 | 1.6 | 9.7 | 0.00 | 0.00 | 0.00 | 84 | 1020.2 |
| 20260831030405 | 16 | 134 | 0.0 | 9.7 | 0.00 | 0.00 | 0.00 | 84 | 1020.1 |
| 20260831025905 | 16 | 130 | 0.0 | 8.0 | 0.00 | 0.00 | 0.00 | 84 | 1020.3 |
| 20260831025405 | 16 | 156 | 1.6 | 11.3 | 0.00 | 0.00 | 0.00 | 84 | 1020.3 |
| 20260831024905 | 16 | 117 | 3.2 | 12.9 | 0.00 | 0.00 | 0.00 | 84 | 1020.4 |
| 20260831024404 | 16 | 148 | 0.0 | 12.9 | 0.00 | 0.00 | 0.00 | 84 | 1020.4 |
| 20260831023905 | 16 | 118 | 0.0 | 4.8 | 0.00 | 0.00 | 0.00 | 84 | 1020.4 |
| 20260831023405 | 16 | 144 | 1.6 | 8.0 | 0.00 | 0.00 | 0.00 | 84 | 1020.4 |
| 20260831022905 | 16 | 135 | 1.6 | 11.3 | 0.00 | 0.00 | 0.00 | 84 | 1020.4 |
| 20260831022404 | 16 | 90 | 0.0 | 1.6 | 0.00 | 0.00 | 0.00 | 84 | 1020.4 |
| 20260831021904 | 16 | 163 | 1.6 | 12.9 | 0.00 | 0.00 | 0.00 | 84 | 1020.4 |
| 20260831021405 | 16 | 164 | 0.0 | 4.8 | 0.00 | 0.00 | 0.00 | 84 | 1020.4 |
| 20260831020905 | 16 | 107 | 3.2 | 19.3 | 0.00 | 0.00 | 0.00 | 84 | 1020.3 |
| 20260831015905 | 16 | 142 | 1.6 | 9.7 | 0.00 | 0.00 | 0.00 | 84 | 1020.4 |
| 20260831015404 | 17 | 40 | 4.8 | 12.9 | 0.00 | 0.00 | 0.00 | 84 | 1020.4 |
| 20260831014905 | 17 | 106 | 1.6 | 4.8 | 0.00 | 0.00 | 0.00 | 84 | 1020.4 |
| 20260831013905 | 17 | 168 | 3.2 | 16.1 | 0.00 | 0.00 | 0.00 | 85 | 1020.4 |
| 20260831013405 | 17 | 122 | 1.6 | 19.3 | 0.00 | 0.00 | 0.00 | 85 | 1020.4 |
| 20260831012405 | 17 | 98 | 0.0 | 12.9 | 0.00 | 0.00 | 0.00 | 85 | 1020.3 |
| 20260831011905 | 17 | 48 | 1.6 | 8.0 | 0.00 | 0.00 | 0.00 | 85 | 1020.2 |
| 20260831011404 | 17 | 126 | 1.6 | 19.3 | 0.00 | 0.00 | 0.00 | 85 | 1020.3 |
| 20260831010904 | 17 | 86 | 0.0 | 4.8 | 0.00 | 0.00 | 0.00 | 85 | 1020.3 |
| 20260831010405 | 17 | 139 | 0.0 | 3.2 | 0.00 | 0.00 | 0.00 | 85 | 1020.3 |
| 20260831005904 | 17 | 109 | 1.6 | 12.9 | 0.00 | 0.00 | 0.00 | 85 | 1020.3 |
| 20260831005405 | 17 | 144 | 0.0 | 8.0 | 0.00 | 0.00 | 0.00 | 85 | 1020.3 |
| 20260831004904 | 17 | 22 | 0.0 | 0.0 | 0.00 | 0.00 | 0.00 | 85 | 1020.3 |
| 20260831004405 | 17 | 19 | 0.0 | 9.7 | 0.00 | 0.00 | 0.00 | 85 | 1020.2 |
| 20260831003904 | 17 | 122 | 3.2 | 14.5 | 0.00 | 0.00 | 0.00 | 85 | 1020.3 |
| 20260831003405 | 17 | 140 | 4.8 | 16.1 | 0.00 | 0.00 | 0.00 | 85 | 1020.2 |
| 20260831002905 | 17 | 83 | 3.2 | 19.3 | 0.00 | 0.00 | 0.00 | 85 | 1020.2 |
| 20260831002404 | 17 | 122 | 3.2 | 9.7 | 0.00 | 0.00 | 0.00 | 85 | 1020.3 |
| 20260831001904 | 17 | 61 | 0.0 | 1.6 | 0.00 | 0.00 | 0.00 | 85 | 1020.3 |
| 20260831001404 | 17 | 122 | 1.6 | 12.9 | 0.00 | 0.00 | 0.00 | 84 | 1020.4 |
| 20260831000904 | 17 | 111 | 0.0 | 11.3 | 0.00 | 0.00 | 0.00 | 84 | 1020.4 |
| 20260831000405 | 17 | 85 | 3.2 | 11.3 | 0.00 | 0.00 | 0.00 | 84 | 1020.4 |
| 20260830235905 | 17 | 84 | 1.6 | 16.1 | 0.00 | 0.00 | 0.00 | 84 | 1020.4 |
| 20260830235404 | 17 | 100 | 1.6 | 16.1 | 0.00 | 0.00 | 0.00 | 84 | 1020.5 |
| 20260830234904 | 17 | 117 | 1.6 | 16.1 | 0.00 | 0.00 | 0.00 | 83 | 1020.4 |
| 20260830234405 | 17 | 160 | 8.0 | 16.1 | 0.00 | 0.00 | 0.00 | 83 | 1020.4 |
| 20260830233904 | 17 | 92 | 8.0 | 22.5 | 0.00 | 0.00 | 0.00 | 83 | 1020.4 |
| 20260830233404 | 17 | 128 | 3.2 | 12.9 | 0.00 | 0.00 | 0.00 | 83 | 1020.5 |
| 20260830232904 | 17 | 98 | 3.2 | 19.3 | 0.00 | 0.00 | 0.00 | 83 | 1020.6 |
| 20260830232404 | 17 | 93 | 4.8 | 22.5 | 0.00 | 0.00 | 0.00 | 82 | 1020.5 |
| 20260830231904 | 17 | 53 | 4.8 | 14.5 | 0.00 | 0.00 | 0.00 | 82 | 1020.5 |
| 20260830231404 | 17 | 69 | 4.8 | 12.9 | 0.00 | 0.00 | 0.00 | 82 | 1020.5 |
| 20260830230404 | 17 | 90 | 3.2 | 11.3 | 0.00 | 0.00 | 0.00 | 81 | 1020.4 |
| 20260830225905 | 18 | 120 | 4.8 | 19.3 | 0.00 | 0.00 | 0.00 | 81 | 1020.4 |
| 20260830225405 | 18 | 103 | 3.2 | 25.7 | 0.00 | 0.00 | 0.00 | 81 | 1020.4 |
| 20260830224904 | 18 | 134 | 6.4 | 19.3 | 0.00 | 0.00 | 0.00 | 81 | 1020.4 |
| 20260830224404 | 18 | 109 | 4.8 | 19.3 | 0.00 | 0.00 | 0.00 | 81 | 1020.5 |
| 20260830223405 | 18 | 134 | 8.0 | 19.3 | 0.00 | 0.00 | 0.00 | 80 | 1020.4 |
| 20260830222404 | 18 | 124 | 3.2 | 12.9 | 0.00 | 0.00 | 0.00 | 80 | 1020.6 |
| 20260830221905 | 18 | 27 | 3.2 | 12.9 | 0.00 | 0.00 | 0.00 | 80 | 1020.4 |
| 20260830221405 | 18 | 103 | 3.2 | 14.5 | 0.00 | 0.00 | 0.00 | 80 | 1020.4 |
| 20260830220904 | 18 | 91 | 1.6 | 11.3 | 0.00 | 0.00 | 0.00 | 80 | 1020.5 |
| 20260830220405 | 18 | 84 | 3.2 | 14.5 | 0.00 | 0.00 | 0.00 | 79 | 1020.5 |
| 20260830215905 | 18 | 44 | 0.0 | 12.9 | 0.00 | 0.00 | 0.00 | 79 | 1020.5 |
| 20260830214904 | 18 | 77 | 1.6 | 12.9 | 0.00 | 0.00 | 0.00 | 78 | 1020.4 |
| 20260830214404 | 19 | 140 | 3.2 | 12.9 | 0.00 | 0.00 | 0.00 | 78 | 1020.5 |
| 20260830213904 | 19 | 116 | 3.2 | 16.1 | 0.00 | 0.00 | 0.00 | 77 | 1020.4 |
| 20260830213404 | 19 | 110 | 1.6 | 20.9 | 0.00 | 0.00 | 0.00 | 76 | 1020.4 |
| 20260830212904 | 19 | 359 | 3.2 | 20.9 | 0.00 | 0.00 | 0.00 | 76 | 1020.3 |
| 20260830212405 | 20 | 104 | 1.6 | 19.3 | 0.00 | 0.00 | 0.00 | 76 | 1020.5 |
| 20260830211904 | 20 | 108 | 4.8 | 19.3 | 0.00 | 0.00 | 0.00 | 75 | 1020.5 |
| 20260830211405 | 20 | 156 | 1.6 | 11.3 | 0.00 | 0.00 | 0.00 | 75 | 1020.5 |
| 20260830210404 | 20 | 109 | 8.0 | 16.1 | 0.00 | 0.00 | 0.00 | 73 | 1020.3 |
| 20260830205905 | 20 | 59 | 9.7 | 20.9 | 0.00 | 0.00 | 0.00 | 73 | 1020.3 |
| 20260830205404 | 20 | 72 | 6.4 | 19.3 | 0.00 | 0.00 | 0.00 | 72 | 1020.3 |
| 20260830204905 | 20 | 98 | 4.8 | 19.3 | 0.00 | 0.00 | 0.00 | 71 | 1020.3 |
| 20260830204404 | 20 | 131 | 4.8 | 12.9 | 0.00 | 0.00 | 0.00 | 71 | 1020.4 |
| 20260830203904 | 21 | 98 | 1.6 | 12.9 | 0.00 | 0.00 | 0.00 | 70 | 1020.3 |
| 20260830203404 | 21 | 98 | 8.0 | 19.3 | 0.00 | 0.00 | 0.00 | 69 | 1020.3 |
| 20260830202905 | 21 | 108 | 1.6 | 14.5 | 0.00 | 0.00 | 0.00 | 69 | 1020.1 |
| 20260830202405 | 21 | 124 | 4.8 | 16.1 | 0.00 | 0.00 | 0.00 | 68 | 1020.1 |
| 20260830201905 | 21 | 123 | 1.6 | 9.7 | 0.00 | 0.00 | 0.00 | 68 | 1020.1 |
| 20260830200405 | 22 | 104 | 4.8 | 11.3 | 0.00 | 0.00 | 0.00 | 67 | 1019.9 |
| 20260830195904 | 22 | 118 | 3.2 | 16.1 | 0.00 | 0.00 | 0.00 | 66 | 1019.9 |
| 20260830195404 | 22 | 137 | 0.0 | 8.0 | 0.00 | 0.00 | 0.00 | 65 | 1019.9 |
| 20260830194905 | 22 | 136 | 4.8 | 11.3 | 0.00 | 0.00 | 0.00 | 64 | 1019.9 |
| 20260830194405 | 22 | 109 | 1.6 | 12.9 | 0.00 | 0.00 | 0.00 | 63 | 1019.6 |
| 20260830193905 | 23 | 57 | 1.6 | 14.5 | 0.00 | 0.00 | 0.00 | 62 | 1019.7 |
| 20260830145406 | 28 | 124 | 1.6 | 14.5 | 0.00 | 0.00 | 0.00 | 49 | 1019.2 |
| 20260830144906 | 28 | 76 | 3.2 | 14.5 | 0.00 | 0.00 | 0.00 | 51 | 1019.3 |
| 20260830144407 | 28 | 123 | 3.2 | 22.5 | 0.00 | 0.00 | 0.00 | 50 | 1019.2 |
| 20260830142907 | 29 | 195 | 1.6 | 8.0 | 0.00 | 0.00 | 0.00 | 49 | 1019.3 |
| 20260830141907 | 29 | 143 | 8.0 | 22.5 | 0.00 | 0.00 | 0.00 | 49 | 1019.4 |
| 20260830141407 | 29 | 247 | 1.6 | 12.9 | 0.00 | 0.00 | 0.00 | 48 | 1019.3 |
| 20260830140906 | 29 | 97 | 3.2 | 20.9 | 0.00 | 0.00 | 0.00 | 49 | 1019.4 |
| 20260830135407 | 29 | 116 | 4.8 | 19.3 | 0.00 | 0.00 | 0.00 | 48 | 1019.4 |
| 20260830134407 | 28 | 129 | 6.4 | 19.3 | 0.00 | 0.00 | 0.00 | 47 | 1019.5 |
| 20260830133906 | 28 | 6 | 1.6 | 14.5 | 0.00 | 0.00 | 0.00 | 48 | 1019.4 |
| 20260830132907 | 28 | 306 | 3.2 | 19.3 | 0.00 | 0.00 | 0.00 | 49 | 1019.5 |
| 20260830132407 | 29 | 236 | 4.8 | 19.3 | 0.00 | 0.00 | 0.00 | 49 | 1019.5 |
| 20260830131906 | 29 | 4 | 0.0 | 9.7 | 0.00 | 0.00 | 0.00 | 50 | 1019.6 |
| 20260830130906 | 28 | 123 | 4.8 | 14.5 | 0.00 | 0.00 | 0.00 | 49 | 1019.7 |
| 20260830125907 | 28 | 336 | 1.6 | 19.3 | 0.00 | 0.00 | 0.00 | 51 | 1019.8 |
| 20260830125407 | 28 | 33 | 1.6 | 12.9 | 0.00 | 0.00 | 0.00 | 51 | 1019.9 |
| 20260830124907 | 28 | 122 | 1.6 | 16.1 | 0.00 | 0.00 | 0.00 | 51 | 1019.9 |
| 20260830124407 | 28 | 80 | 1.6 | 20.9 | 0.00 | 0.00 | 0.00 | 50 | 1019.9 |
| 20260830123907 | 28 | 76 | 4.8 | 19.3 | 0.00 | 0.00 | 0.00 | 50 | 1019.9 |
| 20260830123407 | 28 | 99 | 1.6 | 16.1 | 0.00 | 0.00 | 0.00 | 51 | 1019.9 |
| 20260830122907 | 28 | 154 | 4.8 | 19.3 | 0.00 | 0.00 | 0.00 | 51 | 1020.0 |
| 20260830122407 | 28 | 198 | 0.0 | 12.9 | 0.00 | 0.00 | 0.00 | 53 | 1020.0 |
| 20260830121906 | 27 | 167 | 4.8 | 16.1 | 0.00 | 0.00 | 0.00 | 55 | 1020.1 |
| 20260830120907 | 27 | 290 | 1.6 | 16.1 | 0.00 | 0.00 | 0.00 | 55 | 1020.1 |
| 20260830115906 | 27 | 148 | 1.6 | 16.1 | 0.00 | 0.00 | 0.00 | 57 | 1020.1 |
| 20260830114906 | 27 | 119 | 1.6 | 12.9 | 0.00 | 0.00 | 0.00 | 58 | 1020.3 |
| 20260830114407 | 27 | 118 | 8.0 | 16.1 | 0.00 | 0.00 | 0.00 | 57 | 1020.3 |
| 20260830113907 | 27 | 102 | 3.2 | 19.3 | 0.00 | 0.00 | 0.00 | 57 | 1020.4 |
| 20260830113407 | 27 | 164 | 4.8 | 19.3 | 0.00 | 0.00 | 0.00 | 57 | 1020.4 |
| 20260830112907 | 27 | 96 | 0.0 | 4.8 | 0.00 | 0.00 | 0.00 | 60 | 1020.4 |
| 20260830112406 | 26 | 114 | 1.6 | 11.3 | 0.00 | 0.00 | 0.00 | 62 | 1020.5 |
| 20260830111906 | 26 | 109 | 1.6 | 19.3 | 0.00 | 0.00 | 0.00 | 63 | 1020.5 |
| 20260830111406 | 26 | 125 | 4.8 | 20.9 | 0.00 | 0.00 | 0.00 | 62 | 1020.6 |
| 20260830105906 | 26 | 166 | 3.2 | 19.3 | 0.00 | 0.00 | 0.00 | 62 | 1020.7 |
| 20260830104907 | 26 | 91 | 4.8 | 19.3 | 0.00 | 0.00 | 0.00 | 64 | 1020.8 |
| 20260830104406 | 26 | 96 | 1.6 | 12.9 | 0.00 | 0.00 | 0.00 | 66 | 1020.7 |
| 20260830103906 | 26 | 98 | 4.8 | 16.1 | 0.00 | 0.00 | 0.00 | 66 | 1020.6 |
| 20260830103407 | 26 | 82 | 1.6 | 8.0 | 0.00 | 0.00 | 0.00 | 66 | 1020.7 |
| 20260830102406 | 25 | 165 | 1.6 | 14.5 | 0.00 | 0.00 | 0.00 | 68 | 1020.6 |
| 20260830101907 | 25 | 130 | 4.8 | 19.3 | 0.00 | 0.00 | 0.00 | 67 | 1020.6 |
| 20260830100906 | 25 | 90 | 6.4 | 19.3 | 0.00 | 0.00 | 0.00 | 69 | 1020.6 |
| 20260830100407 | 25 | 72 | 0.0 | 14.5 | 0.00 | 0.00 | 0.00 | 70 | 1020.6 |
| 20260830095906 | 25 | 104 | 1.6 | 11.3 | 0.00 | 0.00 | 0.00 | 71 | 1020.6 |
| 20260830095407 | 25 | 101 | 1.6 | 16.1 | 0.00 | 0.00 | 0.00 | 70 | 1020.5 |
| 20260830094907 | 25 | 126 | 1.6 | 14.5 | 0.00 | 0.00 | 0.00 | 72 | 1020.5 |
| 20260830094407 | 25 | 97 | 8.0 | 16.1 | 0.00 | 0.00 | 0.00 | 72 | 1020.5 |
| 20260830093907 | 25 | 84 | 1.6 | 9.7 | 0.00 | 0.00 | 0.00 | 72 | 1020.4 |
| 20260830093407 | 25 | 144 | 3.2 | 9.7 | 0.00 | 0.00 | 0.00 | 72 | 1020.5 |
| 20260830092906 | 25 | 105 | 3.2 | 12.9 | 0.00 | 0.00 | 0.00 | 72 | 1020.4 |
| 20260830092407 | 24 | 183 | 4.8 | 16.1 | 0.00 | 0.00 | 0.00 | 73 | 1020.4 |
| 20260830091407 | 24 | 105 | 4.8 | 14.5 | 0.00 | 0.00 | 0.00 | 74 | 1020.4 |
| 20260830090906 | 24 | 124 | 3.2 | 19.3 | 0.00 | 0.00 | 0.00 | 74 | 1020.3 |
| 20260830090406 | 23 | 226 | 0.0 | 9.7 | 0.00 | 0.00 | 0.00 | 76 | 1020.2 |
| 20260830085906 | 23 | 138 | 1.6 | 12.9 | 0.00 | 0.00 | 0.00 | 76 | 1020.2 |
| 20260830084906 | 23 | 138 | 1.6 | 4.8 | 0.00 | 0.00 | 0.00 | 77 | 1020.1 |
| 20260830083907 | 23 | 132 | 3.2 | 12.9 | 0.00 | 0.00 | 0.00 | 78 | 1020.1 |
| 20260830083406 | 23 | 86 | 0.0 | 4.8 | 0.00 | 0.00 | 0.00 | 79 | 1020.0 |
| 20260830081906 | 22 | 157 | 1.6 | 14.5 | 0.00 | 0.00 | 0.00 | 81 | 1019.9 |
| 20260830081406 | 22 | 180 | 0.0 | 12.9 | 0.00 | 0.00 | 0.00 | 83 | 1019.9 |
| 20260830080407 | 22 | 95 | 0.0 | 12.9 | 0.00 | 0.00 | 0.00 | 84 | 1019.9 |
| 20260830075906 | 22 | 69 | 0.0 | 12.9 | 0.00 | 0.00 | 0.00 | 84 | 1019.9 |
| 20260830075407 | 22 | 112 | 1.6 | 11.3 | 0.00 | 0.00 | 0.00 | 84 | 1019.9 |
| 20260830074906 | 21 | 158 | 0.0 | 4.8 | 0.00 | 0.00 | 0.00 | 85 | 1019.8 |
| 20260830074406 | 21 | 157 | 1.6 | 12.9 | 0.00 | 0.00 | 0.00 | 86 | 1019.8 |
| 20260830073906 | 21 | 116 | 3.2 | 14.5 | 0.00 | 0.00 | 0.00 | 86 | 1019.7 |
| 20260830072906 | 21 | 150 | 1.6 | 8.0 | 0.00 | 0.00 | 0.00 | 88 | 1019.6 |
| 20260830072406 | 21 | 127 | 1.6 | 12.9 | 0.00 | 0.00 | 0.00 | 89 | 1019.6 |
| 20260830071907 | 21 | 65 | 0.0 | 1.6 | 0.00 | 0.00 | 0.00 | 90 | 1019.5 |
| 20260830071407 | 21 | 91 | 1.6 | 8.0 | 0.00 | 0.00 | 0.00 | 90 | 1019.5 |
| 20260830070907 | 20 | 65 | 0.0 | 1.6 | 0.00 | 0.00 | 0.00 | 91 | 1019.4 |
| 20260830065906 | 20 | 146 | 0.0 | 3.2 | 0.00 | 0.00 | 0.00 | 92 | 1019.4 |
| 20260830065406 | 20 | 148 | 0.0 | 3.2 | 0.00 | 0.00 | 0.00 | 92 | 1019.4 |
| 20260830064407 | 20 | 130 | 0.0 | 11.3 | 0.00 | 0.00 | 0.00 | 93 | 1019.3 |
| 20260830063907 | 20 | 90 | 0.0 | 8.0 | 0.00 | 0.00 | 0.00 | 93 | 1019.2 |
| 20260830063407 | 19 | 137 | 0.0 | 0.0 | 0.00 | 0.00 | 0.00 | 93 | 1019.2 |
| 20260830062907 | 19 | 137 | 1.6 | 9.7 | 0.00 | 0.00 | 0.00 | 93 | 1019.0 |
| 20260830062407 | 19 | 53 | 0.0 | 11.3 | 0.00 | 0.00 | 0.00 | 93 | 1019.0 |
| 20260830061906 | 19 | 91 | 0.0 | 8.0 | 0.00 | 0.00 | 0.00 | 92 | 1019.0 |
| 20260830061407 | 19 | 91 | 0.0 | 0.0 | 0.00 | 0.00 | 0.00 | 92 | 1018.9 |
| 20260830060906 | 19 | 91 | 0.0 | 0.0 | 0.00 | 0.00 | 0.00 | 92 | 1018.9 |
| 20260830060406 | 19 | 91 | 4.8 | 14.5 | 0.00 | 0.00 | 0.00 | 92 | 1018.9 |
| 20260830055407 | 19 | 112 | 1.6 | 11.3 | 0.00 | 0.00 | 0.00 | 92 | 1019.0 |
| 20260830054906 | 19 | 155 | 1.6 | 8.0 | 0.00 | 0.00 | 0.00 | 92 | 1019.0 |
| 20260830054406 | 19 | 151 | 0.0 | 11.3 | 0.00 | 0.00 | 0.00 | 92 | 1019.0 |
| 20260830053906 | 19 | 100 | 1.6 | 9.7 | 0.00 | 0.00 | 0.00 | 92 | 1019.0 |
| 20260830053407 | 19 | 104 | 0.0 | 0.0 | 0.00 | 0.00 | 0.00 | 92 | 1019.0 |
| 20260830052907 | 19 | 53 | 0.0 | 3.2 | 0.00 | 0.00 | 0.00 | 92 | 1019.0 |
| 20260830052408 | 19 | 127 | 0.0 | 1.6 | 0.00 | 0.00 | 0.00 | 91 | 1019.0 |
| 20260830051906 | 19 | 148 | 0.0 | 0.0 | 0.00 | 0.00 | 0.00 | 91 | 1019.0 |
| 20260830051406 | 19 | 121 | 0.0 | 1.6 | 0.00 | 0.00 | 0.00 | 91 | 1019.0 |
| 20260830050906 | 19 | 93 | 3.2 | 8.0 | 0.00 | 0.00 | 0.00 | 91 | 1018.9 |
| 20260830050406 | 19 | 53 | 0.0 | 1.6 | 0.00 | 0.00 | 0.00 | 90 | 1018.9 |
| 20260830045906 | 19 | 53 | 1.6 | 9.7 | 0.00 | 0.00 | 0.00 | 90 | 1018.9 |
| 20260830045406 | 19 | 88 | 0.0 | 0.0 | 0.00 | 0.00 | 0.00 | 90 | 1018.9 |
| 20260830044907 | 20 | 58 | 1.6 | 11.3 | 0.00 | 0.00 | 0.00 | 90 | 1018.9 |
| 20260830044406 | 20 | 26 | 3.2 | 8.0 | 0.00 | 0.00 | 0.00 | 90 | 1019.0 |
| 20260830043907 | 20 | 94 | 1.6 | 9.7 | 0.00 | 0.00 | 0.00 | 90 | 1018.9 |
| 20260830043406 | 20 | 145 | 0.0 | 9.7 | 0.00 | 0.00 | 0.00 | 89 | 1018.8 |
| 20260830042906 | 20 | 63 | 3.2 | 12.9 | 0.00 | 0.00 | 0.00 | 89 | 1018.7 |
| 20260830042406 | 20 | 43 | 1.6 | 8.0 | 0.00 | 0.00 | 0.00 | 89 | 1018.7 |
| 20260830041906 | 20 | 73 | 0.0 | 16.1 | 0.00 | 0.00 | 0.00 | 89 | 1018.7 |
| 20260830041406 | 20 | 102 | 0.0 | 16.1 | 0.00 | 0.00 | 0.00 | 89 | 1018.6 |
| 20260830040906 | 20 | 106 | 1.6 | 8.0 | 0.00 | 0.00 | 0.00 | 88 | 1018.6 |
| 20260830040407 | 20 | 139 | 3.2 | 9.7 | 0.00 | 0.00 | 0.00 | 88 | 1018.6 |
| 20260830035906 | 20 | 150 | 0.0 | 0.0 | 0.00 | 0.00 | 0.00 | 88 | 1018.7 |
| 20260830035406 | 20 | 123 | 1.6 | 12.9 | 0.00 | 0.00 | 0.00 | 88 | 1018.7 |
| 20260830034906 | 20 | 90 | 1.6 | 9.7 | 0.00 | 0.00 | 0.00 | 88 | 1018.8 |
| 20260830034407 | 20 | 142 | 3.2 | 16.1 | 0.00 | 0.00 | 0.00 | 88 | 1018.8 |